Weather History for Andover, NJ

Change the Weather History Date:

Monday, August 5, 2013

  Actual Average (KFWN) Record (KFWN)
Temperature  
Mean Temperature 64 °F -  
Max Temperature 77 °F 83 °F 99 °F (1955)
Min Temperature 52 °F 58 °F 45 °F (1951)
Degree Days  
Heating Degree Days 2    
Growing Degree Days 14 (Base 50)    
Moisture  
Dew Point 51 °F    
Average Humidity 69    
Maximum Humidity 93    
Minimum Humidity 38    
Precipitation  
Precipitation 0.00 in - - ()
Sea Level Pressure  
Sea Level Pressure 30.05 in    
Wind  
Wind Speed 2 mph (North)    
Max Wind Speed 8 mph    
Max Gust Speed -    
Averages and records for this station are not official NWS values.
T = Trace of Precipitation, MM = Missing Value Source: NWS Daily Summary

Daily Weather History Graph

Daily Weather History Graph

Search for Another Location

Airport:

Trip Planner

Search our weather history database for the weather conditions in past years. The results will help you decide how hot, cold, wet, or windy it might be!

Date:

Astronomy

Aug. 05, 2013 Rise Set
Actual Time 5:58 AM EDT 8:10 PM EDT
Civil Twilight 5:28 AM EDT 8:40 PM EDT
Nautical Twilight 4:50 AM EDT 9:17 PM EDT
Astronomical Twilight 4:09 AM EDT 9:58 PM EDT
Moon 4:51 AM EDT (8/5) 7:08 PM EDT (8/5)
Length of Visible Light 15h 12m
Length of Day
14h 11m
Waning Crescent, 1% of the Moon is Illuminated
Aug 5
Waning Crescent
Aug 6
New
Aug 14
First Quarter
Aug 20
Full
Aug 28
Last Quarter

Hourly Weather History & Observations

Time (EDT) Temp. Dew Point Humidity Pressure Visibility Wind Dir Wind Speed Gust Speed Precip Events Conditions
12:54 AM 55.9 °F 52.0 °F 87% 30.01 in - Calm Calm - N/A   Unknown
1:54 AM 55.0 °F 52.0 °F 89% 30.01 in - Calm Calm - N/A   Unknown
2:54 AM 54.0 °F 52.0 °F 93% 30.01 in - Calm Calm - N/A   Unknown
3:54 AM 53.1 °F 51.1 °F 93% 30.02 in - Calm Calm - N/A   Unknown
4:54 AM 52.0 °F 50.0 °F 93% 30.04 in - Calm Calm - N/A   Unknown
5:54 AM 52.0 °F 50.0 °F 93% 30.05 in - Calm Calm - N/A   Unknown
6:54 AM 52.0 °F 50.0 °F 93% 30.07 in - Calm Calm - N/A   Unknown
7:54 AM 57.0 °F 54.0 °F 89% 30.08 in - Calm Calm - N/A   Unknown
8:54 AM 64.0 °F 52.0 °F 65% 30.08 in - Variable 3.5 mph - N/A   Unknown
9:54 AM 66.9 °F 46.9 °F 49% 30.08 in - Variable 6.9 mph - N/A   Unknown
10:54 AM 69.1 °F 46.0 °F 44% 30.08 in - NNW 8.1 mph - N/A   Unknown
11:54 AM 68.0 °F 45.0 °F 43% 30.08 in - NE 8.1 mph - N/A   Unknown
12:54 PM 72.0 °F 48.0 °F 43% 30.06 in - Variable 6.9 mph - N/A   Unknown
1:54 PM 73.0 °F 46.0 °F 38% 30.04 in - Variable 6.9 mph - N/A   Unknown
2:54 PM 75.0 °F 48.9 °F 40% 30.03 in - Variable 5.8 mph - N/A   Unknown
3:54 PM 75.9 °F 50.0 °F 40% 30.02 in - North 5.8 mph - N/A   Unknown
4:54 PM 75.0 °F 48.9 °F 40% 30.01 in - Calm Calm - N/A   Unknown
5:54 PM 75.0 °F 48.9 °F 40% 30.02 in - Calm Calm - N/A   Unknown
6:54 PM 70.0 °F 57.0 °F 63% 30.03 in - Calm Calm - N/A   Unknown
7:54 PM 64.9 °F 57.0 °F 75% 30.05 in - Calm Calm - N/A   Unknown
8:54 PM 63.0 °F 57.9 °F 84% 30.06 in - Calm Calm - N/A   Unknown
9:54 PM 61.0 °F 57.9 °F 90% 30.06 in - Calm Calm - N/A   Unknown
10:54 PM 59.0 °F 55.9 °F 90% 30.06 in - Calm Calm - N/A   Unknown
11:54 PM 57.9 °F 55.0 °F 90% 30.06 in - Calm Calm - N/A   Unknown